TimeCST,TemperatureF,Dew PointF,Humidity,Sea Level PressureIn,VisibilityMPH,Wind Direction,Wind SpeedMPH,Gust SpeedMPH,PrecipitationIn,Events,Conditions,WindDirDegrees,DateUTC
12:54 AM,44.1,30.0,58,30.38,10.0,NW,3.5,-,N/A,,Clear,310,2012-11-16 06:54:00
1:54 AM,42.1,28.9,60,30.39,10.0,NW,3.5,-,N/A,,Clear,320,2012-11-16 07:54:00
2:54 AM,43.0,30.0,60,30.39,10.0,Calm,Calm,-,N/A,,Clear,0,2012-11-16 08:54:00
3:54 AM,42.1,30.0,62,30.40,10.0,Calm,Calm,-,N/A,,Clear,0,2012-11-16 09:54:00
4:54 AM,39.0,30.0,70,30.40,10.0,Calm,Calm,-,N/A,,Clear,0,2012-11-16 10:54:00
5:54 AM,37.4,30.2,75,30.40,10.0,Calm,Calm,-,N/A,,Clear,0,2012-11-16 11:54:00
6:54 AM,37.0,30.0,76,30.43,10.0,Calm,Calm,-,N/A,,Clear,0,2012-11-16 12:54:00
7:54 AM,39.9,30.9,70,30.44,10.0,Calm,Calm,-,N/A,,Clear,0,2012-11-16 13:54:00
8:54 AM,46.0,35.1,66,30.45,10.0,ENE,3.5,-,N/A,,Clear,60,2012-11-16 14:54:00
9:54 AM,51.1,37.9,61,30.45,10.0,Calm,Calm,-,N/A,,Clear,0,2012-11-16 15:54:00
10:54 AM,54.0,37.0,53,30.45,10.0,Calm,Calm,-,N/A,,Clear,0,2012-11-16 16:54:00
11:54 AM,57.0,35.1,44,30.44,10.0,Calm,Calm,-,N/A,,Clear,0,2012-11-16 17:54:00
12:54 PM,59.0,36.0,42,30.42,10.0,Variable,3.5,-,N/A,,Clear,0,2012-11-16 18:54:00
1:54 PM,61.0,35.1,38,30.41,10.0,Calm,Calm,-,N/A,,Clear,0,2012-11-16 19:54:00
2:54 PM,60.1,33.1,36,30.39,10.0,Calm,Calm,-,N/A,,Clear,0,2012-11-16 20:54:00
3:54 PM,60.1,33.1,36,30.40,5.0,Calm,Calm,-,N/A,,Haze,0,2012-11-16 21:54:00
4:54 PM,55.9,32.0,40,30.40,10.0,Calm,Calm,-,N/A,,Clear,0,2012-11-16 22:54:00
5:54 PM,55.0,32.0,42,30.40,10.0,Calm,Calm,-,N/A,,Clear,0,2012-11-16 23:54:00
6:54 PM,52.0,30.9,45,30.42,10.0,East,3.5,-,N/A,,Clear,100,2012-11-17 00:54:00
7:54 PM,48.9,30.9,50,30.42,10.0,East,4.6,-,N/A,,Clear,100,2012-11-17 01:54:00
8:54 PM,48.0,30.9,52,30.42,10.0,ESE,5.8,-,N/A,,Clear,110,2012-11-17 02:54:00
9:54 PM,46.9,32.0,56,30.42,10.0,ESE,6.9,-,N/A,,Clear,120,2012-11-17 03:54:00
10:54 PM,44.1,32.0,63,30.42,10.0,ESE,6.9,-,N/A,,Clear,120,2012-11-17 04:54:00
11:54 PM,44.1,30.9,60,30.43,10.0,ESE,8.1,-,N/A,,Clear,120,2012-11-17 05:54:00